Location: Fredericksburg
(30.2750°N, 98.8720°W)
Time: 20:43:28
(UTC-05:00)

Amateur Radio Satellites - All Passes

Search period start: 26 May 2015 20:13
Search period end: 27 May 2015 20:13
Location: Fredericksburg, 30.2750°N, 98.8720°W

Satellite Date Start Highest point End Downlink Frequencies (MHz)
Time Altitude Azimuth
STRAND 1 26 May 20:27:29 20:32:37 71° 101° (ESE) 20:37:45 437.568
CUTE-I 26 May 20:49:48 20:50:27 10° 270° (W) 20:50:39 437.470
DOVE 4 26 May 20:51:22 20:55:25 26° 71° (ENE) 20:59:45 437.250
PRISM 26 May 20:51:23 20:55:21 43° 285° (WNW) 20:59:17 437.425
Cosmos 2504 26 May 20:51:37 20:53:58 12° 68° (ENE) 20:56:56 435.465 / 435.565
AAUSAT CUBESAT 2 26 May 20:52:43 20:52:57 10° 70° (ENE) 20:53:29 437.432
CUBESAT XI-V 26 May 20:56:45 21:00:05 19° 289° (WNW) 21:03:16 437.345
AIST 2 26 May 21:00:01 21:02:02 13° 310° (NW) 21:03:52 435.215
M-CUBED/EXP-1 PRIME 26 May 21:11:30 21:14:45 61° 288° (WNW) 21:18:04 437.505
Cosmos 2491 26 May 21:13:41 21:22:08 49° 281° (WNW) 21:30:34 435.465 / 435.565
YUBILEINY 26 May 21:19:02 21:26:08 28° 273° (W) 21:32:55 435.215
AUBIESAT-1 26 May 21:19:59 21:23:13 54° 288° (WNW) 21:26:30 437.475
BRITE-PL 26 May 21:21:51 21:26:42 59° 261° (W) 21:31:58 437.365/2234.400
GOMX 1 26 May 21:25:45 21:30:45 87° 260° (W) 21:36:06 467.674
CUBEBUG 2 26 May 21:27:37 21:29:44 13° 70° (ENE) 21:32:07 437.445
CANX-2 26 May 21:31:14 21:35:30 75° 77° (ENE) 21:39:45 2200.000
CUTE 1.7 + AOD 2 26 May 21:34:50 21:39:05 74° 77° (ENE) 21:43:20 437.475
RS-15 26 May 21:36:01 21:45:23 26° 254° (WSW) 21:54:18 29.354- 29.394
Oscar 11 26 May 21:42:47 21:45:53 20° 72° (ENE) 21:49:07 145.826/435.025
HO-68 26 May 21:45:50 21:53:01 79° 256° (WSW) 22:00:14 435.675
AIST 1 26 May 21:48:07 21:52:18 59° 278° (W) 21:56:31
SEEDS 26 May 21:57:57 22:02:09 70° 259° (W) 22:06:22 437.485
CINEMA 3 26 May 22:07:49 22:12:44 82° 78° (ENE) 22:17:48 145.822/145.860
STRAND 1 26 May 22:10:10 22:11:19 10° 293° (WNW) 22:12:06 437.568
COMPASS 1 26 May 22:11:42 22:15:50 58° 260° (W) 22:19:57 437.405
UWE-3 26 May 22:13:18 22:17:31 35° 74° (ENE) 22:21:47 435.000/436.395/437.385
FUNcube-1 26 May 22:24:09 22:28:16 35° 74° (ENE) 22:32:27 145.935
AAUSAT CUBESAT 2 26 May 22:24:10 22:28:13 47° 261° (W) 22:32:14 437.432
DOVE 4 26 May 22:28:42 22:33:03 29° 265° (W) 22:37:30 437.250
Cosmos 2504 26 May 22:41:09 22:48:20 80° 265° (W) 22:55:36 435.465 / 435.565
DELFI C3 26 May 22:52:57 22:56:58 73° 259° (W) 23:00:59 145.870
HUMSAT D 26 May 23:00:36 23:04:38 40° 75° (ENE) 23:08:42 437.325/437.525
CUBEBUG 2 26 May 23:01:26 23:06:03 49° 261° (W) 23:10:40 437.445
ZACube-1 26 May 23:04:04 23:08:40 75° 259° (W) 23:13:16 437.345
UKube-1 26 May 23:06:53 23:11:01 48° 75° (ENE) 23:15:13 .
DX 1 26 May 23:15:08 23:19:26 68° 76° (ENE) 23:23:46 434.975-435.025
UNISAT 6 26 May 23:18:13 23:21:12 19° 94° (E) 23:24:19 437.425
Oscar 11 26 May 23:18:18 23:21:57 25° 264° (W) 23:25:30 145.826/435.025
CUBEBUG 1 26 May 23:28:35 23:31:39 20° 71° (ENE) 23:34:53 437.445
VELOX 1 26 May 23:28:37 23:32:46 43° 74° (ENE) 23:37:00 145.980
ESTCUBE 1 26 May 23:31:15 23:34:52 25° 72° (ENE) 23:38:37 437.505/2401.250
ISS 26 May 23:42:33 23:45:47 82° 318° (NW) 23:49:01 145.825
UWE-3 26 May 23:50:59 23:54:08 17° 267° (W) 23:57:06 435.000/436.395/437.385
GONETS M04 26 May 23:52:48 23:56:51 15° 66° (ENE) 00:01:36
NANOSAT C BR1 26 May 23:53:48 23:56:59 21° 95° (E) 00:00:14 145.865
50 SAT 26 May 23:59:37 00:03:36 63° 259° (W) 00:07:34 437.505
AISAT 26 May 23:59:54 00:04:18 73° 258° (WSW) 00:08:46 437.250
CUSAT 1 27 May 00:00:14 00:04:29 18° 65° (ENE) 00:08:24 437.405
ANTELSAT 27 May 00:00:28 00:04:47 66° 101° (E) 00:09:01 437.575/2403.000
QB50P2 27 May 00:01:19 00:04:56 27° 96° (E) 00:08:35 145.880/145.840
FUNcube-1 27 May 00:01:42 00:04:42 16° 267° (W) 00:07:30 145.935
SPROUT 27 May 00:09:00 00:11:14 14° 70° (ENE) 00:13:39 437.525
POPSAT HIP 1 27 May 00:13:22 00:17:19 37° 98° (E) 00:21:17 437.405
DUCHIFAT 1 27 May 00:15:26 00:19:24 38° 98° (E) 00:23:22 145.980
TISAT 1 27 May 00:32:10 00:35:07 19° 72° (ENE) 00:38:14 437.305
TIGRISAT 27 May 00:33:30 00:37:42 48° 285° (WNW) 00:41:48 435.000
HUMSAT D 27 May 00:38:37 00:40:35 12° 268° (W) 00:42:17 437.325/437.525
BUGSAT 1 27 May 00:39:08 00:43:18 51° 100° (E) 00:47:25 437.445
UKube-1 27 May 00:47:04 00:47:29 10° 269° (W) 00:47:34 .
UNISAT 6 27 May 00:54:22 00:58:00 26° 288° (WNW) 01:01:32 437.425
PCSat 27 May 00:54:27 00:59:20 37° 110° (ESE) 01:04:19 145.827
QB50P1 27 May 00:57:15 01:01:27 56° 285° (WNW) 01:05:36 145.935-145.965
POLYITAN 1 27 May 00:59:12 01:03:23 52° 284° (WNW) 01:07:30 437.675
CUBEBUG 1 27 May 01:04:11 01:07:52 26° 264° (W) 01:11:31 437.445
VERMONT LUNAR 27 May 01:06:30 01:09:13 25° 144° (SE) 01:11:58 437.305
VELOX 1 27 May 01:07:43 01:09:35 12° 268° (W) 01:11:11 145.980
ESTCUBE 1 27 May 01:08:16 01:11:43 21° 265° (W) 01:15:04 437.505/2401.250
DANDE 27 May 01:08:38 01:16:03 61° 78° (ENE) 01:21:44 436.750
ITUPSAT 1 27 May 01:22:18 01:23:07 11° 68° (ENE) 01:24:16 437.325
BEESAT 27 May 01:28:41 01:30:50 13° 69° (ENE) 01:33:14 436.000
NANOSAT C BR1 27 May 01:29:19 01:32:45 23° 288° (WNW) 01:36:04 145.865
SWISSCUBE 27 May 01:36:08 01:39:14 18° 70° (ENE) 01:42:31 437.505
PHONESAT 2.4 27 May 01:36:13 01:36:33 10° 139° (SE) 01:37:02 2401.200-2431.200
QB50P2 27 May 01:37:39 01:40:39 18° 289° (WNW) 01:43:30 145.880/145.840
CUSAT 1 27 May 01:41:25 01:47:56 50° 268° (W) 01:52:51 437.405
SPROUT 27 May 01:43:02 01:47:02 36° 262° (W) 01:51:01 437.525
Oscar 19 27 May 01:45:08 01:46:02 11° 90° (E) 01:47:21 437.125/150
GONETS M04 27 May 01:46:11 01:55:00 86° 263° (W) 02:03:42
POPSAT HIP 1 27 May 01:50:41 01:52:54 14° 290° (WNW) 01:54:54 437.405
DUCHIFAT 1 27 May 01:52:49 01:54:54 13° 290° (WNW) 01:56:46 145.980
TISAT 1 27 May 02:07:13 02:10:45 25° 264° (W) 02:14:15 437.305
O/OREOS (USA 219) 27 May 02:37:59 02:42:22 55° 70° (ENE) 02:46:45 437.305
PCSat 27 May 02:38:33 02:42:52 23° 304° (NW) 02:47:05 145.827
VERMONT LUNAR 27 May 02:43:17 02:46:20 38° 336° (NNW) 02:49:22 437.305
DANDE 27 May 02:53:56 02:58:16 16° 278° (W) 03:01:43 436.750
ITUPSAT 1 27 May 02:55:52 03:00:34 61° 259° (W) 03:05:16 437.325
BEESAT 27 May 03:03:44 03:08:18 48° 260° (W) 03:12:54 436.000
KKS-1 27 May 03:08:34 03:12:19 27° 72° (ENE) 03:16:08 437.445
BEESAT 3 27 May 03:09:51 03:11:02 11° 50° (NE) 03:12:26 437.485
Cosmos 2499 27 May 03:10:17 03:17:13 60° 82° (E) 03:24:23 435.465 / 435.565
PHONESAT 2.4 27 May 03:10:51 03:14:20 82° 150° (SSE) 03:17:49 2401.200-2431.200
SWISSCUBE 27 May 03:12:33 03:16:52 34° 262° (W) 03:21:10 437.505
Oscar 19 27 May 03:20:47 03:25:53 63° 285° (WNW) 03:30:56 437.125/150
SO-50 27 May 03:34:11 03:38:44 67° 115° (ESE) 03:43:28 436.795
ITAMSAT 1 27 May 03:34:49 03:39:47 45° 99° (E) 03:44:48 435.822/435.867
GONETS M04 27 May 03:47:40 03:50:51 12° 278° (W) 03:53:10
BEESAT 2 27 May 03:56:39 04:00:15 30° 57° (ENE) 04:03:50 435.950
STARS 27 May 04:11:59 04:16:25 85° 255° (WSW) 04:20:54 437.465
Gurwin Techsat 1B 27 May 04:12:22 04:17:41 77° 284° (WNW) 04:22:59 435.225
JAS-2 27 May 04:19:31 04:22:46 17° 94° (E) 04:26:23 435.910
VERMONT LUNAR 27 May 04:22:12 04:24:05 14° 352° (N) 04:25:58 437.305
MOZHAYETS 4 27 May 04:38:22 04:41:29 19° 71° (ENE) 04:44:45
BEESAT 3 27 May 04:45:27 04:49:22 49° 246° (WSW) 04:53:12 437.485
KKS-1 27 May 04:45:35 04:48:57 20° 265° (W) 04:52:10 437.445
PHONESAT 2.4 27 May 04:49:54 04:52:43 22° 344° (NNW) 04:55:32 2401.200-2431.200
Cosmos 2499 27 May 05:05:29 05:09:53 17° 273° (W) 05:13:55 435.465 / 435.565
AO-7 27 May 05:11:37 05:19:40 51° 101° (ESE) 05:27:45 29.400- 29.500
ITAMSAT 1 27 May 05:15:36 05:18:59 17° 291° (WNW) 05:22:08 435.822/435.867
SO-50 27 May 05:17:52 05:19:51 12° 313° (NW) 05:21:37 436.795
AIST 2 27 May 05:24:24 05:28:36 84° 62° (ENE) 05:32:42 435.215
HORYU 2 27 May 05:34:01 05:38:22 59° 284° (WNW) 05:42:42 437.375
BEESAT 2 27 May 05:35:32 05:38:07 16° 250° (WSW) 05:40:29 435.950
VERMONT LUNAR 27 May 06:00:08 06:02:06 15° 9° (N) 06:04:04 437.305
JAS-2 27 May 06:03:16 06:08:06 39° 286° (WNW) 06:13:06 435.910
MOZHAYETS 4 27 May 06:14:28 06:18:32 30° 264° (W) 06:22:31
CUBESAT XI-V 27 May 06:17:39 06:20:27 17° 71° (ENE) 06:23:27 437.345
PHONESAT 2.4 27 May 06:29:33 06:31:37 15° 1° (N) 06:33:42 2401.200-2431.200
AO-7 27 May 07:05:06 07:12:08 30° 296° (WNW) 07:18:57 29.400- 29.500
CUTE-I 27 May 07:27:40 07:32:46 45° 99° (E) 07:37:54 437.470
Cosmos 2491 27 May 07:30:50 07:39:36 66° 82° (E) 07:48:18 435.465 / 435.565
RS-15 27 May 07:33:52 07:37:26 13° 103° (ESE) 07:42:11 29.354- 29.394
PRISM 27 May 07:35:32 07:39:32 59° 76° (ENE) 07:43:33 437.425
VERMONT LUNAR 27 May 07:36:43 07:39:48 44° 25° (NNE) 07:42:52 437.305
STRAND 1 27 May 07:37:40 07:42:36 55° 75° (ENE) 07:47:36 437.568
Cubesat XI-IV 27 May 07:48:07 07:53:29 75° 102° (ESE) 07:58:51 437.490
ISS 27 May 07:50:45 07:54:01 86° 52° (NE) 07:57:16 145.825
CUBESAT XI-V 27 May 07:53:27 07:57:39 35° 263° (W) 08:01:51 437.345
M-CUBED/EXP-1 PRIME 27 May 07:53:44 07:58:03 62° 73° (ENE) 08:02:02 437.505
AUBIESAT-1 27 May 08:01:44 08:06:01 67° 73° (ENE) 08:09:59 437.475
AIST 1 27 May 08:02:01 08:05:03 19° 76° (ENE) 08:08:15
PHONESAT 2.4 27 May 08:07:31 08:10:28 26° 18° (NNE) 08:13:26 2401.200-2431.200
YUBILEINY 27 May 08:14:25 08:23:05 69° 93° (E) 08:31:45 435.215
JUGNU 27 May 08:57:29 08:58:30 10° 161° (SSE) 08:59:41 437.505
DOVE 4 27 May 08:59:57 09:00:05 10° 88° (E) 09:00:38 437.250
CUTE-I 27 May 09:08:55 09:12:32 18° 291° (WNW) 09:15:56 437.470
VERMONT LUNAR 27 May 09:14:20 09:16:51 21° 217° (SW) 09:19:19 437.305
STRAND 1 27 May 09:20:03 09:22:13 12° 269° (W) 09:24:01 437.568
HO-68 27 May 09:20:48 09:26:36 28° 96° (E) 09:32:36 435.675
Cosmos 2504 27 May 09:23:06 09:26:45 14° 85° (E) 09:30:58 435.465 / 435.565
CANX-2 27 May 09:23:14 09:26:14 19° 94° (E) 09:29:21 2200.000
CUTE 1.7 + AOD 2 27 May 09:26:47 09:29:44 19° 94° (E) 09:32:49 437.475
Cosmos 2491 27 May 09:29:39 09:35:49 20° 275° (W) 09:41:28 435.465 / 435.565
Cubesat XI-IV 27 May 09:31:40 09:33:03 11° 294° (WNW) 09:34:04 437.490
BRITE-PL 27 May 09:32:38 09:38:15 77° 100° (E) 09:43:31 437.365/2234.400
GOMX 1 27 May 09:34:08 09:39:12 47° 97° (E) 09:43:59 467.674
RS-15 27 May 09:37:43 09:48:34 82° 116° (ESE) 09:59:39 29.354- 29.394
AIST 1 27 May 09:39:04 09:42:42 25° 269° (W) 09:46:16
PHONESAT 2.4 27 May 09:45:21 09:48:45 60° 213° (SSW) 09:52:09 2401.200-2431.200
SEEDS 27 May 09:48:26 09:52:01 28° 97° (E) 09:55:40 437.485
COMPASS 1 27 May 10:01:06 10:04:48 32° 97° (E) 10:08:33 437.405
CINEMA 3 27 May 10:09:39 10:13:42 30° 96° (E) 10:17:36 145.822/145.860
AAUSAT CUBESAT 2 27 May 10:12:52 10:16:43 38° 98° (E) 10:20:35 437.432
YUBILEINY 27 May 10:14:32 10:20:44 20° 291° (WNW) 10:26:25 435.215
DOVE 4 27 May 10:33:27 10:38:25 60° 285° (WNW) 10:43:05 437.250
DELFI C3 27 May 10:38:33 10:41:41 22° 96° (E) 10:44:53 145.870
JUGNU 27 May 10:42:33 10:47:01 22° 168° (SSE) 10:51:29 437.505
QB50P2 27 May 10:51:29 10:52:09 10° 69° (ENE) 10:53:06 145.880/145.840
ANTELSAT 27 May 10:53:43 10:57:47 30° 73° (ENE) 11:01:54 437.575/2403.000
CANX-2 27 May 10:58:42 11:02:08 24° 287° (WNW) 11:05:29 2200.000
CUBEBUG 2 27 May 10:58:44 11:03:03 54° 99° (E) 11:07:12 437.445
ZACube-1 27 May 10:59:13 11:03:00 31° 97° (E) 11:06:46 437.345
UKube-1 27 May 11:01:54 11:03:49 13° 93° (E) 11:05:58 .
POPSAT HIP 1 27 May 11:02:04 11:04:16 14° 70° (ENE) 11:06:41 437.405
CUTE 1.7 + AOD 2 27 May 11:02:11 11:05:38 24° 287° (WNW) 11:08:59 437.475
DUCHIFAT 1 27 May 11:03:41 11:05:55 15° 70° (ENE) 11:08:21 145.980
HO-68 27 May 11:07:47 11:14:29 44° 290° (WNW) 11:21:06 435.675
DX 1 27 May 11:10:13 11:13:14 19° 95° (E) 11:16:23 434.975-435.025
Oscar 11 27 May 11:10:29 11:14:48 89° 101° (ESE) 11:19:05 145.826/435.025
Cosmos 2504 27 May 11:11:02 11:19:34 82° 277° (W) 11:27:32 435.465 / 435.565
GOMX 1 27 May 11:13:37 11:16:53 16° 292° (WNW) 11:19:49 467.674
BRITE-PL 27 May 11:14:20 11:16:04 11° 294° (WNW) 11:17:23 437.365/2234.400
BUGSAT 1 27 May 11:24:46 11:27:22 17° 71° (ENE) 11:30:09 437.445
SEEDS 27 May 11:24:56 11:27:37 16° 288° (WNW) 11:30:09 437.485
TIGRISAT 27 May 11:25:42 11:30:23 71° 77° (ENE) 11:35:03 435.000
VELOX 1 27 May 11:26:33 11:28:35 13° 92° (E) 11:30:54 145.980
PCSat 27 May 11:30:44 11:36:10 86° 64° (ENE) 11:41:35 145.827
COMPASS 1 27 May 11:37:54 11:40:14 14° 289° (WNW) 11:42:24 437.405
50 SAT 27 May 11:42:27 11:45:26 22° 96° (E) 11:48:28 437.505
QB50P1 27 May 11:44:02 11:48:07 48° 75° (ENE) 11:52:17 145.935-145.965
UWE-3 27 May 11:45:25 11:49:36 47° 285° (WNW) 11:53:39 435.000/436.395/437.385
POLYITAN 1 27 May 11:46:10 11:50:20 52° 75° (ENE) 11:54:33 437.675
UNISAT 6 27 May 11:46:20 11:51:00 63° 259° (W) 11:55:39 437.425
CINEMA 3 27 May 11:47:23 11:50:41 19° 290° (WNW) 11:53:42 145.822/145.860
AAUSAT CUBESAT 2 27 May 11:50:17 11:52:02 12° 289° (WNW) 11:53:33 437.432
RS-15 27 May 11:53:47 12:02:25 25° 318° (NW) 12:10:49 29.354- 29.394
FUNcube-1 27 May 11:54:26 11:58:34 49° 285° (WNW) 12:02:36 145.935
AISAT 27 May 11:56:39 12:00:42 33° 98° (E) 12:04:45 437.250
SRMSAT 27 May 12:00:43 12:04:46 19° 166° (SSE) 12:08:53 437.500
SO-50 27 May 12:12:34 12:15:23 15° 49° (NE) 12:18:22 436.795
DELFI C3 27 May 12:13:45 12:16:41 19° 287° (WNW) 12:19:29 145.870
NANOSAT C BR1 27 May 12:15:05 12:19:18 67° 259° (W) 12:23:34 145.865
QB50P2 27 May 12:23:30 12:27:40 49° 260° (W) 12:31:50 145.880/145.840
HUMSAT D 27 May 12:25:58 12:29:56 45° 285° (WNW) 12:33:50 437.325/437.525
JUGNU 27 May 12:30:29 12:35:34 30° 178° (S) 12:40:37 437.505
ANTELSAT 27 May 12:31:06 12:34:35 20° 266° (W) 12:37:55 437.575/2403.000
DANDE 27 May 12:31:24 12:34:11 13° 81° (E) 12:37:48 436.750
POPSAT HIP 1 27 May 12:35:55 12:39:52 35° 262° (W) 12:43:49 437.405
UKube-1 27 May 12:36:05 12:40:08 38° 286° (WNW) 12:44:09 .
ZACube-1 27 May 12:36:31 12:39:08 16° 289° (WNW) 12:41:33 437.345
DUCHIFAT 1 27 May 12:37:32 12:41:27 35° 262° (W) 12:45:21 145.980
DX 1 27 May 12:45:44 12:49:30 28° 287° (WNW) 12:53:11 434.975-435.025
GONETS M04 27 May 12:46:06 12:51:58 21° 85° (E) 12:58:20
CUSAT 1 27 May 12:56:10 13:02:09 33° 88° (E) 13:09:12 437.405
CUBEBUG 1 27 May 12:57:53 13:02:21 88° 102° (ESE) 13:06:47 437.445
BUGSAT 1 27 May 12:59:04 13:02:38 28° 263° (W) 13:06:12 437.445
VELOX 1 27 May 13:01:09 13:05:22 40° 286° (WNW) 13:09:30 145.980
ESTCUBE 1 27 May 13:05:24 13:09:54 64° 284° (WNW) 13:14:23 437.505/2401.250
Cosmos 2504 27 May 13:11:45 13:14:11 11° 293° (WNW) 13:15:44 435.465 / 435.565
50 SAT 27 May 13:17:20 13:20:01 18° 288° (WNW) 13:22:34 437.505
AISAT 27 May 13:34:05 13:37:02 17° 290° (WNW) 13:39:48 437.250
SPROUT 27 May 13:35:06 13:39:23 59° 100° (E) 13:43:38 437.525
SRMSAT 27 May 13:48:27 13:53:27 29° 175° (S) 13:58:27 437.500
SO-50 27 May 13:51:30 13:56:20 54° 246° (WSW) 14:01:02 436.795
TISAT 1 27 May 13:56:36 14:00:52 78° 101° (E) 14:05:06 437.305
DANDE 27 May 14:09:29 14:16:09 88° 277° (W) 14:24:26 436.750
JUGNU 27 May 14:19:16 14:24:07 26° 188° (S) 14:28:56 437.505
Oscar 19 27 May 14:31:34 14:36:46 79° 258° (WSW) 14:41:59 437.125/150
CUSAT 1 27 May 14:37:57 14:44:37 42° 286° (WNW) 14:52:13 437.405
GONETS M04 27 May 14:39:29 14:48:13 64° 279° (W) 14:56:59
ITAMSAT 1 27 May 14:47:17 14:51:59 38° 73° (ENE) 14:56:47 435.822/435.867
ITUPSAT 1 27 May 15:02:12 15:06:53 55° 100° (E) 15:11:35 437.325
O/OREOS (USA 219) 27 May 15:07:43 15:09:40 13° 101° (E) 15:11:53 437.305
BEESAT 27 May 15:09:30 15:14:16 69° 102° (ESE) 15:19:01 436.000
SWISSCUBE 27 May 15:18:03 15:22:51 85° 285° (WNW) 15:27:39 437.505
Gurwin Techsat 1B 27 May 15:27:33 15:32:51 86° 256° (WSW) 15:38:12 435.225
SRMSAT 27 May 15:37:11 15:42:10 28° 185° (S) 15:47:08 437.500
Cosmos 2499 27 May 15:38:59 15:47:05 60° 93° (E) 15:54:39 435.465 / 435.565
DANDE 27 May 15:57:10 16:00:59 14° 299° (WNW) 16:04:28 436.750
AO-7 27 May 16:04:27 16:11:58 42° 67° (ENE) 16:19:40 29.400- 29.500
STARS 27 May 16:08:02 16:11:46 27° 96° (E) 16:15:33 437.465
JAS-2 27 May 16:08:13 16:14:37 43° 74° (ENE) 16:20:23 435.910
JUGNU 27 May 16:09:13 16:12:37 15° 196° (SSW) 16:15:54 437.505
HORYU 2 27 May 16:26:15 16:30:40 60° 76° (ENE) 16:35:06 437.375
ITAMSAT 1 27 May 16:27:59 16:31:39 19° 266° (W) 16:35:07 435.822/435.867
RS-15 27 May 16:36:15 16:41:23 14° 30° (NNE) 16:47:19 29.354- 29.394
KKS-1 27 May 16:41:07 16:45:34 65° 284° (WNW) 16:49:58 437.445
ITUPSAT 1 27 May 16:42:29 16:44:22 12° 292° (WNW) 16:45:57 437.325
O/OREOS (USA 219) 27 May 16:44:32 16:48:48 40° 292° (WNW) 16:53:02 437.305
SRMSAT 27 May 17:26:52 17:30:50 18° 194° (SSW) 17:34:45 437.500
Cosmos 2499 27 May 17:34:39 17:40:40 21° 287° (WNW) 17:46:01 435.465 / 435.565
STARS 27 May 17:44:51 17:48:03 19° 289° (WNW) 17:51:07 437.465
BEESAT 2 27 May 17:45:15 17:48:26 23° 111° (ESE) 17:51:44 435.950
JAS-2 27 May 17:54:13 17:59:45 24° 264° (W) 18:04:38 435.910
AO-7 27 May 17:57:22 18:04:50 35° 262° (W) 18:12:09 29.400- 29.500
MOZHAYETS 4 27 May 18:14:39 18:19:13 83° 282° (WNW) 18:23:48
BEESAT 3 27 May 18:32:26 18:36:28 67° 299° (WNW) 18:40:32 437.485
YUBILEINY 27 May 18:32:59 18:39:36 25° 72° (ENE) 18:46:33 435.215
Cosmos 2491 27 May 18:34:06 18:37:01 13° 82° (E) 18:40:45 435.465 / 435.565
CUTE-I 27 May 18:43:57 18:48:52 42° 73° (ENE) 18:53:52 437.470
RS-15 27 May 18:45:57 18:57:22 56° 57° (ENE) 19:09:18 29.354- 29.394
Cubesat XI-IV 27 May 19:04:24 19:09:38 69° 76° (ENE) 19:14:57 437.490
AIST 2 27 May 19:16:32 19:20:45 74° 116° (ESE) 19:25:01 435.215
BEESAT 2 27 May 19:23:09 19:26:26 22° 305° (NW) 19:29:41 435.950
PRISM 27 May 19:25:12 19:27:06 13° 93° (E) 19:29:14 437.425
HO-68 27 May 19:47:50 19:49:18 11° 61° (ENE) 19:51:21 435.675
STRAND 1 27 May 19:54:21 19:58:49 30° 97° (E) 20:03:23 437.568
CUBESAT XI-V 27 May 19:55:19 20:00:02 90° 101° (ESE) 20:04:45 437.345
